Temp
-11 -11 -11 -12 -12 -12 -13 -14 -15 -15 -16 -17 -19 -21 -23 -24 -24 -25 -25 -25 -25 -22 -21 -20 -18 -18 -18 -17 -18 -18 -18 -18 -19 -18 -19 -19 -19 -19 -19 -18 -18 -18 -18
-11 -11 -11 -12 -12 -13 -13 -15 -15 -15 -16 -16 -18 -20 -22 -24 -25 -25 -25 -25 -24 -21 -20 -19 -18 -18 -18 -18 -18 -18 -18 -19 -19 -18 -19 -19 -19 -19 -19 -18 -18 -18 -18
-11 -12 -11 -12 -12 -13 -14 -15 -15 -15 -16 -16 -18 -19 -21 -23 -24 -24 -24 -23 -21 -21 -20 -19 -18 -18 -18 -18 -18 -18 -18 -19 -19 -19 -19 -19 -19 -19 -18 -18 -18 -18 -18
-12 -12 -11 -12 -12 -13 -14 -14 -14 -15 -16 -16 -17 -18 -19 -21 -21 -21 -21 -21 -20 -19 -19 -19 -18 -18 -18 -18 -18 -18 -18 -19 -19 -19 -19 -19 -19 -19 -19 -19 -18 -18 -18
-12 -12 -12 -12 -12 -13 -14 -14 -14 -15 -16 -16 -17 -17 -18 -19 -19 -19 -19 -19 -19 -19 -18 -18 -18 -18 -18 -18 -18 -18 -18 -18 -19 -19 -18 -18 -18 -19 -19 -19 -19 -18 -18
-12 -12 -12 -12 -12 -13 -13 -14 -15 -15 -15 -16 -17 -17 -17 -17 -18 -18 -18 -18 -18 -18 -18 -18 -18 -18 -18 -18 -18 -18 -18 -18 -18 -18 -18 -18 -18 -18 -18 -18 -18 -18 -18
-12 -12 -12 -12 -12 -13 -13 -14 -15 -15 -15 -16 -16 -17 -17 -17 -17 -17 -17 -18 -18 -18 -18 -18 -18 -18 -18 -18 -18 -18 -18 -18 -18 -18 -18 -18 -18 -18 -18 -18 -18 -18 -18
-12 -12 -12 -13 -13 -13 -13 -13 -14 -15 -15 -16 -16 -16 -17 -17 -17 -17 -17 -17 -17 -17 -18 -18 -18 -18 -17 -17 -17 -17 -18 -18 -18 -18 -18 -18 -18 -18 -18 -18 -18 -18 -18
-12 -13 -13 -13 -13 -13 -13 -13 -14 -15 -15 -15 -16 -16 -16 -17 -17 -17 -17 -17 -17 -17 -17 -17 -17 -17 -17 -17 -17 -17 -17 -17 -17 -18 -18 -18 -18 -18 -18 -18 -18 -18 -18
-13 -13 -13 -13 -13 -13 -13 -13 -14 -14 -15 -15 -15 -16 -16 -16 -16 -16 -16 -16 -16 -17 -17 -17 -17 -17 -17 -17 -17 -17 -17 -17 -17 -17 -18 -17 -18 -18 -18 -18 -18 -18 -18
-12 -13 -14 -13 -13 -13 -13 -13 -14 -14 -15 -15 -15 -16 -16 -16 -16 -17 -16 -16 -16 -16 -16 -17 -17 -17 -16 -17 -17 -18 -18 -18 -18 -18 -18 -17 -18 -18 -18 -18 -18 -18 -18
-13 -13 -13 -14 -14 -14 -14 -14 -14 -14 -15 -15 -16 -16 -16 -16 -17 -17 -16 -17 -16 -16 -16 -16 -17 -17 -17 -17 -17 -18 -18 -18 -18 -18 -18 -18 -18 -18 -18 -18 -18 -18 -19
-13 -13 -14 -14 -14 -14 -14 -14 -14 -14 -14 -15 -15 -16 -16 -16 -16 -17 -17 -17 -17 -17 -17 -17 -17 -17 -17 -17 -17 -17 -17 -17 -17 -17 -17 -17 -17 -17 -18 -18 -18 -18 -18
-13 -13 -13 -14 -14 -14 -14 -14 -14 -14 -14 -15 -15 -16 -16 -16 -16 -16 -17 -17 -17 -17 -17 -17 -17 -17 -17 -17 -17 -17 -17 -17 -17 -17 -17 -18 -18 -18 -18 -18 -18 -18 -18
-13 -13 -13 -14 -14 -14 -14 -14 -14 -14 -15 -15 -15 -16 -16 -16 -16 -16 -17 -17 -17 -17 -17 -17 -17 -17 -17 -17 -17 -17 -17 -17 -18 -17 -18 -17 -17 -18 -18 -18 -18 -18 -18
-14 -14 -14 -15 -15 -15 -15 -15 -15 -15 -14 -15 -15 -15 -16 -16 -16 -17 -17 -17 -17 -17 -18 -18 -17 -17 -17 -17 -17 -17 -17 -17 -18 -17 -18 -18 -17 -17 -18 -18 -18 -19 -19
-14 -15 -15 -15 -15 -15 -15 -15 -15 -15 -15 -15 -15 -15 -15 -16 -16 -16 -17 -17 -17 -17 -17 -18 -18 -18 -18 -18 -17 -17 -17 -18 -18 -18 -18 -18 -18 -17 -17 -19 -19 -19 -19
-15 -15 -16 -16 -16 -16 -16 -15 -15 -15 -15 -15 -15 -15 -15 -15 -16 -16 -16 -17 -17 -17 -17 -17 -18 -18 -18 -18 -18 -18 -17 -18 -18 -18 -19 -19 -19 -18 -19 -19 -19 -18 -18
-16 -17 -17 -16 -17 -17 -16 -16 -16 -16 -16 -16 -16 -15 -15 -15 -15 -16 -16 -16 -17 -17 -17 -17 -17 -18 -18 -18 -18 -18 -17 -18 -18 -18 -19 -19 -19 -19 -19 -19 -18 -18 -18
-16 -16 -16 -17 -17 -17 -17 -16 -16 -16 -16 -16 -16 -16 -16 -16 -15 -15 -16 -16 -16 -17 -17 -17 -17 -17 -18 -18 -18 -18 -18 -18 -18 -18 -18 -19 -19 -19 -18 -18 -18 -18 -18
-16 -16 -16 -17 -17 -17 -17 -17 -17 -17 -17 -17 -17 -17 -17 -16 -16 -16 -15 -16 -16 -17 -17 -17 -17 -17 -17 -18 -18 -18 -18 -18 -18 -18 -18 -18 -18 -18 -18 -18 -18 -18 -18
-15 -15 -16 -16 -16 -16 -17 -17 -17 -17 -17 -17 -17 -17 -17 -17 -16 -16 -16 -15 -16 -17 -17 -17 -17 -17 -18 -18 -18 -18 -18 -18 -18 -18 -18 -18 -18 -18 -18 -18 -18 -18 -18
-15 -15 -16 -16 -16 -16 -16 -17 -17 -17 -17 -17 -17 -17 -17 -17 -17 -17 -17 -16 -16 -17 -17 -17 -17 -17 -17 -18 -18 -18 -18 -18 -18 -18 -18 -18 -18 -18 -18 -18 -18 -18 -18
-15 -15 -15 -16 -16 -17 -17 -17 -17 -17 -18 -18 -18 -18 -18 -18 -17 -18 -18 -17 -17 -17 -17 -17 -17 -18 -18 -18 -18 -18 -18 -18 -18 -18 -18 -18 -18 -18 -18 -18 -18 -18 -18
-17 -18 -18 -19 -19 -19 -19 -19 -19 -19 -19 -19 -19 -19 -19 -18 -18 -18 -18 -18 -18 -18 -17 -16 -17 -17 -18 -18 -18 -18 -18 -18 -18 -19 -18 -18 -18 -18 -18 -18 -18 -18 -18
-22 -22 -23 -23 -24 -24 -24 -23 -23 -23 -22 -22 -21 -20 -20 -20 -19 -19 -18 -18 -18 -18 -18 -18 -17 -18 -18 -18 -18 -19 -18 -18 -18 -18 -19 -19 -18 -18 -18 -18 -18 -18 -18
Height
5769 5762 5754 5746 5738 5729 5719 5708 5701 5689 5673 5651 5628 5606 5585 5563 5553 5546 5543 5545 5552 5565 5583 5597 5606 5612 5618 5621 5622 5623 5625 5626 5627 5628 5629 5631 5632 5633 5636 5638 5641 5643 5645
5765 5758 5749 5742 5733 5724 5715 5708 5700 5687 5667 5648 5628 5607 5586 5565 5552 5544 5543 5543 5550 5568 5584 5596 5603 5610 5614 5616 5618 5620 5622 5623 5624 5625 5627 5627 5628 5630 5632 5634 5636 5638 5640
5761 5754 5746 5738 5730 5722 5713 5706 5698 5683 5665 5650 5632 5614 5595 5576 5560 5552 5548 5553 5565 5579 5590 5598 5604 5608 5611 5613 5615 5617 5618 5619 5621 5623 5624 5625 5625 5626 5628 5629 5631 5633 5635
5756 5750 5742 5734 5728 5719 5711 5705 5694 5681 5666 5653 5639 5625 5610 5596 5584 5574 5572 5576 5583 5591 5596 5601 5605 5608 5610 5612 5614 5615 5616 5617 5619 5619 5620 5621 5621 5622 5622 5623 5624 5626 5628
5753 5747 5740 5733 5726 5717 5710 5702 5692 5681 5669 5657 5646 5634 5625 5615 5606 5598 5594 5593 5596 5599 5603 5605 5607 5609 5611 5613 5614 5616 5616 5616 5617 5617 5617 5618 5619 5619 5618 5618 5618 5619 5621
5749 5745 5738 5731 5724 5715 5708 5699 5691 5681 5672 5662 5651 5643 5635 5629 5623 5616 5611 5609 5607 5608 5609 5610 5610 5612 5613 5615 5615 5615 5615 5615 5615 5615 5614 5615 5615 5615 5615 5615 5614 5615 5616
5745 5740 5734 5728 5721 5713 5706 5698 5691 5682 5673 5665 5657 5649 5643 5636 5632 5627 5622 5619 5616 5614 5614 5614 5614 5615 5615 5615 5615 5614 5613 5613 5613 5612 5613 5613 5613 5613 5613 5613 5612 5612 5612
5739 5733 5729 5724 5718 5710 5703 5696 5690 5683 5675 5668 5662 5656 5650 5644 5638 5634 5630 5626 5623 5620 5619 5618 5617 5616 5616 5615 5614 5613 5612 5612 5611 5610 5611 5611 5611 5610 5610 5609 5608 5609 5611
5732 5728 5723 5719 5713 5707 5701 5694 5688 5682 5676 5670 5665 5659 5654 5650 5644 5639 5635 5632 5628 5625 5623 5621 5619 5618 5616 5615 5615 5614 5613 5612 5610 5609 5610 5609 5609 5608 5608 5607 5606 5607 5609
5725 5721 5717 5713 5709 5703 5697 5691 5686 5681 5675 5670 5665 5660 5656 5651 5647 5643 5638 5634 5631 5628 5625 5623 5622 5620 5618 5617 5615 5614 5614 5612 5611 5610 5609 5608 5607 5606 5606 5607 5606 5607 5608
5717 5713 5709 5706 5702 5699 5693 5688 5683 5678 5673 5668 5664 5659 5656 5652 5647 5644 5640 5636 5633 5629 5628 5626 5624 5622 5620 5619 5617 5616 5615 5613 5612 5611 5610 5609 5607 5607 5608 5609 5609 5610 5611
5707 5704 5702 5698 5695 5692 5688 5683 5678 5674 5670 5665 5661 5657 5654 5651 5647 5643 5640 5636 5633 5631 5629 5628 5625 5624 5622 5620 5618 5616 5615 5614 5612 5611 5610 5610 5609 5609 5609 5610 5611 5611 5612
5696 5694 5692 5690 5687 5684 5681 5677 5673 5669 5665 5662 5657 5654 5651 5649 5645 5642 5638 5636 5633 5630 5629 5628 5626 5625 5624 5622 5620 5619 5617 5615 5613 5612 5611 5609 5608 5609 5611 5612 5613 5614 5614
5686 5684 5681 5680 5678 5675 5671 5668 5666 5663 5659 5656 5653 5649 5646 5644 5642 5640 5637 5634 5632 5629 5628 5627 5626 5625 5625 5624 5622 5621 5619 5616 5614 5613 5610 5609 5608 5610 5613 5614 5615 5616 5617
5676 5674 5672 5669 5667 5664 5662 5659 5657 5654 5652 5649 5646 5644 5641 5638 5637 5635 5633 5632 5629 5627 5625 5625 5624 5624 5624 5624 5623 5622 5620 5618 5616 5614 5613 5612 5611 5613 5615 5616 5618 5619 5619
5664 5661 5658 5656 5655 5652 5650 5649 5646 5644 5642 5641 5638 5636 5634 5632 5629 5629 5628 5627 5626 5624 5622 5621 5621 5621 5622 5622 5622 5621 5621 5619 5618 5616 5615 5615 5616 5616 5617 5618 5620 5622 5624
5653 5650 5648 5645 5642 5640 5639 5637 5635 5632 5631 5630 5628 5626 5625 5624 5622 5620 5620 5620 5620 5620 5618 5617 5617 5617 5618 5619 5619 5619 5620 5620 5620 5618 5617 5617 5618 5618 5619 5621 5625 5627 5629
5639 5635 5634 5633 5630 5627 5624 5623 5622 5621 5619 5618 5617 5616 5615 5614 5613 5612 5611 5611 5612 5612 5612 5612 5612 5613 5613 5614 5616 5617 5617 5618 5619 5619 5620 5619 5620 5620 5622 5625 5627 5631 5633
5625 5622 5619 5616 5613 5612 5611 5608 5607 5606 5606 5605 5604 5603 5602 5601 5601 5600 5602 5601 5601 5603 5604 5605 5604 5606 5608 5609 5610 5612 5614 5615 5616 5618 5620 5621 5622 5624 5626 5628 5631 5633 5635
5608 5604 5601 5598 5595 5592 5589 5588 5587 5587 5587 5587 5587 5587 5585 5585 5588 5589 5588 5589 5590 5591 5592 5595 5597 5597 5599 5602 5604 5606 5609 5611 5613 5615 5617 5620 5622 5624 5627 5629 5632 5635 5636
5586 5582 5578 5575 5571 5569 5567 5566 5565 5563 5563 5564 5566 5568 5566 5566 5571 5575 5575 5575 5577 5579 5580 5582 5585 5588 5590 5592 5596 5599 5602 5606 5608 5611 5614 5617 5620 5624 5626 5629 5631 5634 5637
5561 5556 5552 5549 5545 5543 5540 5539 5539 5539 5539 5538 5540 5543 5543 5543 5547 5554 5557 5561 5561 5563 5565 5569 5572 5576 5580 5582 5586 5590 5594 5597 5602 5605 5608 5612 5616 5619 5623 5626 5629 5632 5635
5531 5525 5520 5515 5511 5509 5507 5506 5505 5507 5508 5510 5510 5514 5519 5519 5521 5528 5534 5539 5542 5546 5548 5552 5558 5562 5567 5571 5575 5579 5584 5589 5593 5597 5601 5605 5609 5614 5618 5622 5625 5629 5633
5499 5492 5486 5481 5476 5472 5469 5467 5466 5465 5467 5472 5475 5481 5486 5492 5495 5500 5507 5514 5519 5525 5530 5534 5540 5546 5552 5557 5562 5568 5574 5578 5583 5587 5592 5597 5601 5605 5611 5615 5620 5624 5628
5466 5458 5451 5445 5439 5434 5429 5425 5424 5423 5423 5426 5430 5438 5446 5456 5462 5470 5478 5486 5493 5501 5509 5517 5521 5529 5535 5541 5548 5555 5561 5567 5572 5576 5581 5587 5593 5597 5602 5608 5613 5618 5622
5434 5427 5419 5413 5407 5401 5395 5390 5387 5384 5382 5381 5383 5388 5398 5412 5425 5436 5446 5455 5465 5475 5484 5494 5502 5510 5517 5525 5532 5539 5546 5553 5560 5565 5569 5575 5581 5587 5592 5598 5604 5609 5615
Wind_Speed
29 32 35 37 40 44 48 52 55 62 65 65 68 67 67 42 30 31 22 20 24 34 35 27 22 19 17 16 14 14 13 14 16 14 16 18 16 16 19 21 21 21 22
30 33 36 38 40 44 46 48 52 58 62 63 64 65 61 48 29 22 15 6 14 28 27 20 19 15 13 11 10 10 12 14 16 12 14 15 18 17 17 19 20 20 21
30 33 36 38 40 42 43 45 48 55 57 57 60 59 55 47 35 26 17 16 25 21 17 17 14 10 9 8 8 9 10 12 14 12 10 12 15 17 17 18 23 22 22
31 33 36 39 40 41 39 42 46 49 52 49 52 52 49 44 41 37 32 26 20 16 13 10 8 7 7 8 7 7 6 8 11 12 11 11 13 16 19 22 24 24 24
29 32 34 36 38 39 38 40 42 43 47 43 43 44 42 36 32 31 27 23 16 11 8 6 5 5 6 5 4 5 5 8 10 11 10 9 12 13 16 20 23 22 20
27 29 31 33 35 37 38 38 38 39 40 42 38 36 34 33 30 27 23 20 16 13 10 8 7 4 2 2 4 6 7 8 8 10 12 13 10 11 10 11 14 16 18
25 28 28 30 32 34 36 36 34 35 34 36 37 34 29 29 27 24 22 19 16 15 11 8 6 5 4 5 6 6 7 9 12 12 8 8 9 9 9 11 11 11 10
28 27 27 28 29 31 33 34 32 30 31 30 29 28 26 24 25 22 19 19 15 11 9 8 6 6 7 7 5 3 2 3 5 6 7 9 10 10 10 9 12 13 10
30 29 28 28 27 28 30 31 32 28 29 28 25 24 23 18 23 21 18 15 14 13 10 7 9 6 5 4 4 4 3 2 5 3 4 5 10 10 8 7 6 8 10
31 31 30 30 29 27 27 28 30 28 26 27 27 22 19 18 18 19 18 13 13 11 11 9 7 8 5 6 6 5 5 6 5 2 3 6 4 4 7 5 6 7 9
33 32 31 30 29 28 27 26 27 28 26 25 26 25 20 17 16 16 17 16 13 9 7 4 5 6 7 6 7 6 7 5 2 7 6 7 4 1 4 9 7 4 3
34 34 33 31 29 29 27 26 26 26 26 26 23 24 22 19 17 15 14 11 12 12 3 3 4 1 7 9 8 7 7 4 3 3 5 4 3 4 5 9 8 5 4
37 36 35 34 31 30 27 27 27 25 26 26 25 22 23 21 17 16 15 12 12 9 5 5 2 1 5 8 9 8 4 4 2 4 5 2 3 9 9 9 9 7 14
39 40 40 37 35 31 29 28 27 27 26 26 25 25 23 22 20 16 15 15 12 12 9 8 7 4 1 5 7 8 7 3 5 9 6 9 7 11 9 10 11 5 6
42 42 42 41 38 35 33 31 29 29 27 27 27 25 26 24 23 21 16 14 13 13 13 11 11 10 6 3 4 6 9 5 5 7 7 7 11 12 8 6 9 3 12
40 41 41 41 40 38 36 34 34 32 30 28 29 29 27 27 26 25 23 19 16 13 15 16 14 16 13 11 5 3 6 7 2 4 5 6 9 9 9 11 11 19 30
40 41 42 44 42 39 38 38 37 36 33 31 30 31 31 30 29 29 27 24 22 18 16 18 18 16 17 17 14 7 4 4 2 2 3 3 8 11 13 20 28 24 21
42 42 41 45 45 45 43 40 36 36 39 36 34 31 32 34 34 33 30 27 26 24 20 19 20 20 18 19 20 15 10 9 8 8 7 9 10 17 22 27 24 18 18
47 47 48 48 48 50 49 45 44 46 42 37 40 41 35 37 38 37 34 30 30 29 27 23 22 22 22 21 20 23 19 16 15 13 13 14 20 20 20 21 19 20 19
57 61 61 62 61 59 60 58 57 55 56 50 49 45 48 44 40 39 39 39 35 32 32 30 27 26 25 25 22 22 23 21 20 20 20 18 20 18 21 19 19 20 21
64 65 66 68 67 65 64 60 61 61 62 64 55 49 51 51 50 49 43 43 41 38 35 35 35 31 29 29 28 25 25 27 25 25 24 26 23 22 19 22 21 21 21
71 72 72 72 73 73 72 71 68 70 67 65 63 62 58 57 61 58 53 51 48 45 42 39 39 38 35 33 32 30 29 29 31 30 30 30 31 28 27 25 24 24 23
78 79 80 80 81 80 80 80 79 77 77 81 75 73 68 62 61 62 61 59 56 51 48 46 42 41 42 39 35 32 33 32 33 35 35 34 35 35 32 31 30 28 26
83 84 85 85 85 84 84 84 85 86 87 87 90 84 78 74 71 71 69 67 67 58 53 50 48 45 45 46 43 39 34 34 36 37 38 39 39 39 39 36 34 32 30
85 84 83 82 81 79 79 79 78 79 83 88 93 94 88 89 86 83 71 72 73 69 59 57 55 51 48 47 48 46 40 38 37 39 40 41 42 42 42 42 39 36 35
74 71 69 67 66 66 67 68 69 70 71 74 81 88 96 97 93 81 75 75 76 71 66 64 61 54 53 51 50 51 48 42 42 39 40 42 43 45 45 44 45 43 39
Wind_Direction
344 347 347 347 346 348 345 347 341 339 343 348 350 351 347 341 322 316 297 265 245 209 212 214 214 225 244 258 260 256 246 247 257 269 253 255 250 243 239 244 244 250 243
354 353 352 351 350 351 349 344 343 342 352 358 357 357 356 358 353 349 338 306 188 182 194 199 206 219 238 246 240 240 242 244 255 256 250 251 248 241 247 249 244 243 237
353 354 354 355 352 352 349 343 344 349 358 5 9 7 10 15 25 28 40 101 132 154 168 187 197 205 219 224 222 233 240 237 247 252 256 251 247 249 249 243 245 243 245
351 354 354 356 352 352 348 343 351 354 2 5 14 16 21 30 43 60 76 92 109 128 154 174 172 186 201 193 209 212 217 232 251 266 267 256 254 254 257 256 252 251 251
344 348 350 352 351 352 348 346 354 355 4 6 14 20 24 31 45 61 74 91 103 109 108 109 126 158 178 199 222 234 244 263 254 263 266 265 269 265 257 261 260 261 252
333 338 345 348 349 351 349 348 355 353 1 11 13 17 28 31 31 37 49 56 65 75 82 86 100 121 134 218 262 291 267 277 258 258 271 273 261 264 260 260 258 258 251
321 328 337 341 346 347 349 349 353 351 354 5 19 21 25 31 35 38 45 48 56 69 66 76 86 60 24 358 316 298 283 275 267 268 260 255 261 251 260 259 252 249 239
313 319 326 331 339 344 345 349 349 350 349 355 6 16 21 32 36 38 40 50 52 52 54 54 33 15 4 326 291 270 263 274 273 259 240 252 246 255 274 266 231 218 228
307 311 316 320 329 337 340 344 346 347 345 346 348 359 9 17 28 30 28 23 24 18 17 23 28 35 68 50 28 14 345 317 346 298 290 294 271 266 265 227 212 217 232
299 303 307 313 318 326 332 336 340 342 339 343 339 345 345 352 357 2 14 14 15 11 0 11 55 79 54 36 23 2 360 358 351 45 19 351 291 243 195 191 104 155 163
293 295 298 304 309 314 320 326 330 332 335 333 337 338 336 331 337 344 356 355 356 10 9 14 109 64 30 19 351 347 346 345 77 74 69 40 42 121 166 174 151 160 224
287 290 293 295 300 304 308 314 318 322 327 327 325 329 332 328 330 331 333 345 339 354 320 300 125 40 1 2 345 355 357 84 113 237 352 25 56 143 140 156 171 175 177
281 284 285 287 290 293 297 302 307 311 315 319 319 315 318 324 329 327 324 323 317 321 308 248 234 262 10 1 2 358 10 61 39 346 323 341 195 152 163 164 166 142 148
278 282 283 284 284 286 288 292 296 299 302 307 309 311 305 306 312 320 325 320 309 301 288 257 231 217 291 6 0 0 345 57 41 17 30 76 113 156 168 179 168 123 152
280 284 285 283 282 283 285 285 286 288 292 295 298 300 301 295 294 298 304 311 310 289 280 276 238 223 248 282 353 355 354 358 40 41 77 95 83 131 171 184 206 146 141
275 276 275 279 281 280 280 281 283 282 283 284 287 290 290 292 288 283 287 289 294 291 270 264 263 237 232 248 238 329 332 336 44 64 99 104 121 133 150 148 143 141 130
280 281 281 283 280 278 278 279 277 279 276 276 279 282 283 282 284 283 275 276 278 281 275 263 255 255 245 239 235 230 262 295 221 147 142 129 138 143 145 132 143 139 142
281 281 284 283 279 278 278 275 273 279 276 273 270 273 277 279 277 275 277 271 267 266 267 262 255 249 246 244 234 234 233 223 211 186 166 162 150 148 150 150 154 152 145
283 286 289 289 284 280 275 278 278 276 276 268 274 268 266 269 270 271 271 270 264 260 259 256 252 245 242 242 243 234 239 220 204 198 184 167 156 160 162 164 163 159 154
285 282 283 287 286 284 279 279 277 273 273 271 268 268 262 266 261 267 265 263 262 258 254 251 250 245 238 236 237 236 231 226 213 199 192 185 176 173 173 174 167 169 166
287 285 283 282 280 279 276 271 273 272 269 264 265 258 255 258 266 257 260 261 259 255 253 249 247 244 240 235 234 233 232 225 218 210 199 195 191 183 186 182 182 179 176
287 285 282 280 278 276 273 269 266 263 260 260 261 255 254 259 270 256 249 253 257 252 247 247 244 244 241 237 233 233 230 231 224 216 209 202 201 198 197 195 194 190 190
288 287 285 283 281 278 275 272 267 261 257 253 260 259 252 257 250 252 245 242 247 249 246 244 240 240 238 238 236 233 231 228 228 224 216 210 207 208 205 204 203 199 200
291 289 286 284 282 279 276 273 269 266 262 255 254 254 254 253 245 247 248 245 243 240 245 245 242 236 234 235 236 233 231 228 227 227 223 218 213 211 212 209 209 204 204
292 291 290 288 286 284 281 278 274 269 263 259 255 250 245 243 241 241 243 240 237 237 236 241 239 238 232 230 234 234 230 233 231 226 227 223 222 216 215 215 214 213 210
298 297 296 295 293 290 287 283 280 275 270 263 258 252 246 240 240 243 239 236 238 234 233 236 240 232 231 230 227 230 231 230 233 230 226 226 222 222 218 217 218 216 217